Time,TemperatureF,DewpointF,PressureIn,WindDirection,WindDirectionDegrees,WindSpeedMPH,WindSpeedGustMPH,Humidity,HourlyPrecipIn,Conditions,Clouds,dailyrainin,SoftwareType,DateUTC
2013-04-17 00:00:00,60.8,57.8,30.27,West,280,0.0,0.0,90,0.00,,,0.00,Wunderground v.1.15,2013-04-17 04:00:00,
2013-04-17 00:02:00,60.7,57.7,30.27,West,280,0.0,0.0,90,0.00,,,0.00,Wunderground v.1.15,2013-04-17 04:02:00,
2013-04-17 00:04:00,60.7,57.7,30.27,West,280,0.0,0.0,90,0.00,,,0.00,Wunderground v.1.15,2013-04-17 04:04:00,
2013-04-17 00:06:00,60.6,58.0,30.27,West,280,0.0,0.0,91,0.00,,,0.00,Wunderground v.1.15,2013-04-17 04:06:00,
2013-04-17 00:12:00,60.5,57.9,30.27,West,280,0.0,0.0,91,0.00,,,0.00,Wunderground v.1.15,2013-04-17 04:12:00,
2013-04-17 00:18:00,60.3,57.7,30.27,West,280,0.0,0.0,91,0.00,,,0.00,Wunderground v.1.15,2013-04-17 04:18:00,
2013-04-17 00:24:00,60.2,57.6,30.27,West,280,0.0,0.0,91,0.00,,,0.00,Wunderground v.1.15,2013-04-17 04:24:00,
2013-04-17 00:30:00,60.1,57.8,30.26,West,280,0.0,0.0,92,0.00,,,0.00,Wunderground v.1.15,2013-04-17 04:30:00,
2013-04-17 00:36:00,60.0,57.4,30.26,West,280,0.0,0.0,91,0.00,,,0.00,Wunderground v.1.15,2013-04-17 04:36:00,
2013-04-17 00:42:00,59.8,57.5,30.26,West,280,0.0,0.0,92,0.00,,,0.00,Wunderground v.1.15,2013-04-17 04:42:00,
2013-04-17 00:48:00,59.7,57.4,30.26,West,280,0.0,0.0,92,0.00,,,0.00,Wunderground v.1.15,2013-04-17 04:48:00,
2013-04-17 00:54:00,59.6,57.3,30.26,West,280,0.0,0.0,92,0.00,,,0.00,Wunderground v.1.15,2013-04-17 04:54:00,
2013-04-17 01:00:00,59.5,57.2,30.26,West,280,0.0,0.0,92,0.00,,,0.00,Wunderground v.1.15,2013-04-17 05:00:00,
2013-04-17 01:06:00,59.3,57.3,30.26,West,280,0.0,0.0,93,0.00,,,0.00,Wunderground v.1.15,2013-04-17 05:06:00,
2013-04-17 01:12:00,59.2,56.9,30.26,West,280,0.0,0.0,92,0.00,,,0.00,Wunderground v.1.15,2013-04-17 05:12:00,
2013-04-17 01:18:00,59.1,57.1,30.25,West,280,0.0,0.0,93,0.00,,,0.00,Wunderground v.1.15,2013-04-17 05:18:00,
2013-04-17 01:24:00,59.0,57.0,30.25,West,280,0.0,0.0,93,0.00,,,0.00,Wunderground v.1.15,2013-04-17 05:24:00,
2013-04-17 01:30:00,58.9,56.9,30.26,West,280,0.0,0.0,93,0.00,,,0.00,Wunderground v.1.15,2013-04-17 05:30:00,
2013-04-17 01:36:00,58.9,56.9,30.26,West,280,0.0,0.0,93,0.00,,,0.00,Wunderground v.1.15,2013-04-17 05:36:00,
2013-04-17 01:42:00,58.8,56.8,30.25,West,280,0.0,0.0,93,0.00,,,0.00,Wunderground v.1.15,2013-04-17 05:42:00,
2013-04-17 01:48:00,58.8,57.1,30.25,West,280,0.0,0.0,94,0.00,,,0.00,Wunderground v.1.15,2013-04-17 05:48:00,
2013-04-17 01:54:00,58.7,57.0,30.26,West,280,0.0,0.0,94,0.00,,,0.00,Wunderground v.1.15,2013-04-17 05:54:00,
2013-04-17 02:00:00,58.9,57.2,30.26,West,280,0.0,0.0,94,0.00,,,0.00,Wunderground v.1.15,2013-04-17 06:00:00,
2013-04-17 02:06:00,59.0,57.3,30.25,West,280,0.0,0.0,94,0.00,,,0.00,Wunderground v.1.15,2013-04-17 06:06:00,
2013-04-17 02:12:00,58.9,56.9,30.25,West,280,0.0,0.0,93,0.00,,,0.00,Wunderground v.1.15,2013-04-17 06:12:00,
2013-04-17 02:18:00,58.8,56.8,30.25,West,280,0.0,0.0,93,0.00,,,0.00,Wunderground v.1.15,2013-04-17 06:18:00,
2013-04-17 02:24:00,58.9,57.2,30.25,West,280,0.0,0.0,94,0.00,,,0.00,Wunderground v.1.15,2013-04-17 06:24:00,
2013-04-17 02:30:00,59.0,57.3,30.25,West,280,0.0,0.0,94,0.00,,,0.00,Wunderground v.1.15,2013-04-17 06:30:00,
2013-04-17 02:36:00,59.0,57.3,30.25,West,280,0.0,0.0,94,0.00,,,0.00,Wunderground v.1.15,2013-04-17 06:36:00,
2013-04-17 02:42:00,59.1,57.4,30.25,West,280,0.0,0.0,94,0.00,,,0.00,Wunderground v.1.15,2013-04-17 06:42:00,
2013-04-17 02:48:00,59.0,57.0,30.25,West,280,0.0,0.0,93,0.00,,,0.00,Wunderground v.1.15,2013-04-17 06:48:00,
2013-04-17 02:54:00,58.9,57.2,30.25,West,280,0.0,0.0,94,0.00,,,0.00,Wunderground v.1.15,2013-04-17 06:54:00,
2013-04-17 03:00:00,59.0,57.3,30.25,West,280,0.0,0.0,94,0.00,,,0.00,Wunderground v.1.15,2013-04-17 07:00:00,
2013-04-17 03:06:00,58.9,57.2,30.25,West,280,0.0,0.0,94,0.00,,,0.00,Wunderground v.1.15,2013-04-17 07:06:00,
2013-04-17 03:12:00,58.8,56.8,30.25,West,280,0.0,0.0,93,0.00,,,0.00,Wunderground v.1.15,2013-04-17 07:12:00,
2013-04-17 03:18:00,58.7,57.0,30.25,West,280,0.0,0.0,94,0.00,,,0.00,Wunderground v.1.15,2013-04-17 07:18:00,
2013-04-17 03:24:00,58.7,57.0,30.25,West,280,0.0,0.0,94,0.00,,,0.00,Wunderground v.1.15,2013-04-17 07:24:00,
2013-04-17 03:30:00,58.7,57.0,30.25,West,280,0.0,0.0,94,0.00,,,0.00,Wunderground v.1.15,2013-04-17 07:30:00,
2013-04-17 03:36:00,58.7,57.0,30.25,West,280,0.0,0.0,94,0.00,,,0.00,Wunderground v.1.15,2013-04-17 07:36:00,
2013-04-17 03:42:00,58.6,56.9,30.25,West,280,0.0,0.0,94,0.00,,,0.00,Wunderground v.1.15,2013-04-17 07:42:00,
2013-04-17 03:48:00,58.5,56.8,30.25,West,280,0.0,0.0,94,0.00,,,0.00,Wunderground v.1.15,2013-04-17 07:48:00,
2013-04-17 03:54:00,58.4,56.7,30.26,West,280,0.0,0.0,94,0.00,,,0.00,Wunderground v.1.15,2013-04-17 07:54:00,
2013-04-17 04:00:00,58.4,56.7,30.26,West,280,0.0,0.0,94,0.00,,,0.00,Wunderground v.1.15,2013-04-17 08:00:00,
2013-04-17 04:06:00,58.3,56.6,30.26,West,280,0.0,0.0,94,0.00,,,0.00,Wunderground v.1.15,2013-04-17 08:06:00,
2013-04-17 04:12:00,58.1,56.4,30.26,West,280,0.0,0.0,94,0.00,,,0.00,Wunderground v.1.15,2013-04-17 08:12:00,
2013-04-17 04:18:00,57.9,56.2,30.25,West,280,0.0,0.0,94,0.00,,,0.00,Wunderground v.1.15,2013-04-17 08:18:00,
2013-04-17 04:24:00,58.0,56.6,30.25,West,280,0.0,0.0,95,0.00,,,0.00,Wunderground v.1.15,2013-04-17 08:24:00,
2013-04-17 04:30:00,58.0,56.6,30.26,West,280,0.0,0.0,95,0.00,,,0.00,Wunderground v.1.15,2013-04-17 08:30:00,
2013-04-17 04:36:00,57.9,56.5,30.26,West,280,0.0,0.0,95,0.00,,,0.00,Wunderground v.1.15,2013-04-17 08:36:00,
2013-04-17 04:42:00,57.8,56.4,30.26,West,280,0.0,0.0,95,0.00,,,0.00,Wunderground v.1.15,2013-04-17 08:42:00,
2013-04-17 04:48:00,57.8,56.4,30.26,West,280,0.0,0.0,95,0.00,,,0.00,Wunderground v.1.15,2013-04-17 08:48:00,
2013-04-17 04:54:00,57.7,56.3,30.26,West,280,0.0,0.0,95,0.00,,,0.00,Wunderground v.1.15,2013-04-17 08:54:00,
2013-04-17 05:00:00,58.0,56.6,30.26,West,280,0.0,0.0,95,0.00,,,0.00,Wunderground v.1.15,2013-04-17 09:00:00,
2013-04-17 05:06:00,58.4,57.3,30.25,West,280,0.0,0.0,96,0.00,,,0.00,Wunderground v.1.15,2013-04-17 09:06:00,
2013-04-17 05:12:00,58.6,57.5,30.25,West,280,0.0,0.0,96,0.00,,,0.00,Wunderground v.1.15,2013-04-17 09:12:00,
2013-04-17 05:18:00,58.6,57.5,30.25,West,280,0.0,0.0,96,0.00,,,0.00,Wunderground v.1.15,2013-04-17 09:18:00,
2013-04-17 05:24:00,58.7,57.6,30.25,West,280,0.0,0.0,96,0.00,,,0.00,Wunderground v.1.15,2013-04-17 09:24:00,
2013-04-17 05:30:00,58.8,57.7,30.26,West,280,0.0,0.0,96,0.00,,,0.00,Wunderground v.1.15,2013-04-17 09:30:00,
2013-04-17 05:36:00,58.9,57.8,30.26,West,280,0.0,0.0,96,0.00,,,0.00,Wunderground v.1.15,2013-04-17 09:36:00,
2013-04-17 05:42:00,58.8,57.4,30.26,West,280,0.0,0.0,95,0.00,,,0.00,Wunderground v.1.15,2013-04-17 09:42:00,
2013-04-17 05:48:00,58.6,57.2,30.26,West,280,0.0,0.0,95,0.00,,,0.00,Wunderground v.1.15,2013-04-17 09:48:00,
2013-04-17 05:54:00,58.5,57.1,30.26,West,280,0.0,0.0,95,0.00,,,0.00,Wunderground v.1.15,2013-04-17 09:54:00,
2013-04-17 06:00:00,58.2,56.8,30.26,West,280,0.0,0.0,95,0.00,,,0.00,Wunderground v.1.15,2013-04-17 10:00:00,
2013-04-17 06:06:00,58.0,56.6,30.26,West,280,0.0,0.0,95,0.00,,,0.00,Wunderground v.1.15,2013-04-17 10:06:00,
2013-04-17 06:12:00,57.8,56.4,30.26,West,280,0.0,0.0,95,0.00,,,0.00,Wunderground v.1.15,2013-04-17 10:12:00,
2013-04-17 06:18:00,57.7,56.3,30.26,West,280,0.0,0.0,95,0.00,,,0.00,Wunderground v.1.15,2013-04-17 10:18:00,
2013-04-17 06:24:00,57.6,56.2,30.26,West,280,0.0,0.0,95,0.00,,,0.00,Wunderground v.1.15,2013-04-17 10:24:00,
2013-04-17 06:30:00,57.6,56.2,30.26,West,281,0.0,0.0,95,0.00,,,0.00,Wunderground v.1.15,2013-04-17 10:30:00,
2013-04-17 06:36:00,57.5,56.1,30.27,West,280,0.0,0.0,95,0.00,,,0.00,Wunderground v.1.15,2013-04-17 10:36:00,
2013-04-17 06:42:00,57.5,56.1,30.27,West,279,0.0,0.0,95,0.00,,,0.00,Wunderground v.1.15,2013-04-17 10:42:00,
2013-04-17 06:48:00,57.6,56.5,30.27,West,279,0.0,0.0,96,0.00,,,0.00,Wunderground v.1.15,2013-04-17 10:48:00,
2013-04-17 06:54:00,57.7,56.6,30.28,West,279,0.0,0.0,96,0.00,,,0.00,Wunderground v.1.15,2013-04-17 10:54:00,
2013-04-17 07:00:00,57.9,56.8,30.29,West,279,0.0,0.0,96,0.00,,,0.00,Wunderground v.1.15,2013-04-17 11:00:00,
2013-04-17 07:06:00,58.0,56.9,30.28,West,279,0.0,0.0,96,0.00,,,0.00,Wunderground v.1.15,2013-04-17 11:06:00,
2013-04-17 07:12:00,58.0,56.9,30.28,West,279,0.0,0.0,96,0.00,,,0.00,Wunderground v.1.15,2013-04-17 11:12:00,
2013-04-17 07:18:00,58.0,56.9,30.29,West,279,0.0,0.0,96,0.00,,,0.00,Wunderground v.1.15,2013-04-17 11:18:00,
2013-04-17 07:24:00,58.2,57.1,30.30,West,279,0.0,0.0,96,0.00,,,0.00,Wunderground v.1.15,2013-04-17 11:24:00,
2013-04-17 07:30:00,58.6,57.5,30.31,West,279,0.0,0.0,96,0.00,,,0.00,Wunderground v.1.15,2013-04-17 11:30:00,
2013-04-17 07:36:00,59.0,57.9,30.31,West,279,0.0,0.0,96,0.00,,,0.00,Wunderground v.1.15,2013-04-17 11:36:00,
2013-04-17 07:42:00,59.4,58.5,30.30,West,279,0.0,0.0,97,0.00,,,0.00,Wunderground v.1.15,2013-04-17 11:42:00,
2013-04-17 07:48:00,59.7,58.6,30.30,West,279,0.0,0.0,96,0.00,,,0.00,Wunderground v.1.15,2013-04-17 11:48:00,
2013-04-17 07:54:00,60.0,59.1,30.30,West,279,0.0,0.0,97,0.00,,,0.00,Wunderground v.1.15,2013-04-17 11:54:00,
2013-04-17 08:00:00,60.2,59.3,30.30,West,279,0.0,0.0,97,0.00,,,0.00,Wunderground v.1.15,2013-04-17 12:00:00,
2013-04-17 08:06:00,60.4,59.3,30.30,West,279,0.0,0.0,96,0.00,,,0.00,Wunderground v.1.15,2013-04-17 12:06:00,
2013-04-17 08:12:00,60.7,59.8,30.30,West,279,0.0,0.0,97,0.00,,,0.00,Wunderground v.1.15,2013-04-17 12:12:00,
2013-04-17 08:18:00,61.0,59.9,30.29,West,279,0.0,0.0,96,0.00,,,0.00,Wunderground v.1.15,2013-04-17 12:18:00,
2013-04-17 08:24:00,61.6,60.7,30.29,WNW,285,0.0,1.0,97,0.00,,,0.00,Wunderground v.1.15,2013-04-17 12:24:00,
2013-04-17 08:30:00,62.2,61.0,30.28,North,355,0.0,0.0,96,0.00,,,0.00,Wunderground v.1.15,2013-04-17 12:30:00,
2013-04-17 08:36:00,63.0,61.2,30.28,NNW,327,1.0,2.0,94,0.00,,,0.00,Wunderground v.1.15,2013-04-17 12:36:00,
2013-04-17 08:42:00,63.9,61.5,30.27,NNW,345,1.0,1.0,92,0.00,,,0.00,Wunderground v.1.15,2013-04-17 12:42:00,
2013-04-17 08:48:00,64.5,61.5,30.27,NW,308,1.0,2.0,90,0.00,,,0.00,Wunderground v.1.15,2013-04-17 12:48:00,
2013-04-17 08:54:00,65.1,61.5,30.27,NE,52,1.0,1.0,88,0.00,,,0.00,Wunderground v.1.15,2013-04-17 12:54:00,
2013-04-17 09:00:00,65.8,62.1,30.27,NE,56,1.0,1.0,88,0.00,,,0.00,Wunderground v.1.15,2013-04-17 13:00:00,
2013-04-17 09:06:00,66.7,63.4,30.28,North,4,1.0,2.0,89,0.00,,,0.00,Wunderground v.1.15,2013-04-17 13:06:00,
2013-04-17 09:12:00,67.8,62.8,30.27,NE,44,1.0,1.0,84,0.00,,,0.00,Wunderground v.1.15,2013-04-17 13:12:00,
2013-04-17 09:18:00,68.8,63.4,30.27,NNW,344,1.0,3.0,83,0.00,,,0.00,Wunderground v.1.15,2013-04-17 13:18:00,
2013-04-17 09:24:00,69.8,63.0,30.27,NE,38,2.0,2.0,79,0.00,,,0.00,Wunderground v.1.15,2013-04-17 13:24:00,
2013-04-17 09:30:00,70.3,63.5,30.26,NE,56,2.0,2.0,79,0.00,,,0.00,Wunderground v.1.15,2013-04-17 13:30:00,
2013-04-17 09:36:00,70.9,63.0,30.26,North,8,2.0,5.0,76,0.00,,,0.00,Wunderground v.1.15,2013-04-17 13:36:00,
2013-04-17 09:42:00,71.5,63.9,30.26,North,353,2.0,2.0,77,0.00,,,0.00,Wunderground v.1.15,2013-04-17 13:42:00,
2013-04-17 09:48:00,72.2,63.8,30.25,ENE,64,2.0,2.0,75,0.00,,,0.00,Wunderground v.1.15,2013-04-17 13:48:00,
2013-04-17 09:54:00,72.8,64.0,30.25,NNE,29,1.0,2.0,74,0.00,,,0.00,Wunderground v.1.15,2013-04-17 13:54:00,
2013-04-17 10:00:00,73.2,64.4,30.25,NE,37,2.0,3.0,74,0.00,,,0.00,Wunderground v.1.15,2013-04-17 14:00:00,
2013-04-17 10:06:00,73.4,63.8,30.25,NE,45,2.0,3.0,72,0.00,,,0.00,Wunderground v.1.15,2013-04-17 14:06:00,
2013-04-17 10:12:00,73.6,64.0,30.26,NE,47,2.0,6.0,72,0.00,,,0.00,Wunderground v.1.15,2013-04-17 14:12:00,
2013-04-17 10:18:00,73.9,64.3,30.26,NE,39,3.0,6.0,72,0.00,,,0.00,Wunderground v.1.15,2013-04-17 14:18:00,
2013-04-17 10:24:00,74.3,64.3,30.26,NNE,31,2.0,4.0,71,0.00,,,0.00,Wunderground v.1.15,2013-04-17 14:24:00,
2013-04-17 10:30:00,74.9,64.9,30.26,NE,56,3.0,3.0,71,0.00,,,0.00,Wunderground v.1.15,2013-04-17 14:30:00,
2013-04-17 10:36:00,75.3,65.6,30.26,NNE,22,2.0,4.0,72,0.00,,,0.00,Wunderground v.1.15,2013-04-17 14:36:00,
2013-04-17 10:42:00,75.9,65.0,30.26,NNE,12,2.0,3.0,69,0.00,,,0.00,Wunderground v.1.15,2013-04-17 14:42:00,
2013-04-17 10:48:00,75.8,63.6,30.25,WNW,291,2.0,3.0,66,0.00,,,0.00,Wunderground v.1.15,2013-04-17 14:48:00,
2013-04-17 10:54:00,76.2,64.4,30.25,NE,39,2.0,2.0,67,0.00,,,0.00,Wunderground v.1.15,2013-04-17 14:54:00,
2013-04-17 11:00:00,76.6,65.2,30.25,NE,44,2.0,5.0,68,0.00,,,0.00,Wunderground v.1.15,2013-04-17 15:00:00,
2013-04-17 11:06:00,76.8,64.6,30.25,ENE,68,2.0,5.0,66,0.00,,,0.00,Wunderground v.1.15,2013-04-17 15:06:00,
2013-04-17 11:12:00,77.3,65.5,30.25,NE,56,2.0,5.0,67,0.00,,,0.00,Wunderground v.1.15,2013-04-17 15:12:00,
2013-04-17 11:18:00,77.5,64.8,30.25,NNW,335,2.0,5.0,65,0.00,,,0.00,Wunderground v.1.15,2013-04-17 15:18:00,
2013-04-17 11:24:00,77.5,64.8,30.25,North,3,1.0,4.0,65,0.00,,,0.00,Wunderground v.1.15,2013-04-17 15:24:00,
2013-04-17 11:30:00,77.5,64.8,30.25,WNW,302,2.0,2.0,65,0.00,,,0.00,Wunderground v.1.15,2013-04-17 15:30:00,
2013-04-17 11:36:00,77.7,65.0,30.25,NE,47,2.0,2.0,65,0.00,,,0.00,Wunderground v.1.15,2013-04-17 15:36:00,
2013-04-17 11:42:00,78.3,65.6,30.24,East,84,2.0,2.0,65,0.00,,,0.00,Wunderground v.1.15,2013-04-17 15:42:00,
2013-04-17 11:48:00,78.9,63.8,30.24,NE,41,2.0,2.0,60,0.00,,,0.00,Wunderground v.1.15,2013-04-17 15:48:00,
2013-04-17 11:54:00,79.6,65.0,30.24,ENE,66,1.0,2.0,61,0.00,,,0.00,Wunderground v.1.15,2013-04-17 15:54:00,
2013-04-17 12:00:00,80.4,65.2,30.24,ENE,62,1.0,3.0,60,0.00,,,0.00,Wunderground v.1.15,2013-04-17 16:00:00,
2013-04-17 12:06:00,80.5,64.4,30.24,WNW,297,2.0,3.0,58,0.00,,,0.00,Wunderground v.1.15,2013-04-17 16:06:00,
2013-04-17 12:12:00,80.4,65.2,30.23,NNW,342,2.0,3.0,60,0.00,,,0.00,Wunderground v.1.15,2013-04-17 16:12:00,
2013-04-17 12:18:00,80.1,64.0,30.23,East,82,2.0,4.0,58,0.00,,,0.00,Wunderground v.1.15,2013-04-17 16:18:00,
2013-04-17 12:24:00,80.2,63.6,30.23,ENE,58,3.0,6.0,57,0.00,,,0.00,Wunderground v.1.15,2013-04-17 16:24:00,
2013-04-17 12:30:00,80.2,63.1,30.23,ENE,74,3.0,3.0,56,0.00,,,0.00,Wunderground v.1.15,2013-04-17 16:30:00,
2013-04-17 12:36:00,80.6,65.9,30.23,North,360,2.0,3.0,61,0.00,,,0.00,Wunderground v.1.15,2013-04-17 16:36:00,
2013-04-17 12:42:00,81.6,65.4,30.23,ENE,64,2.0,7.0,58,0.00,,,0.00,Wunderground v.1.15,2013-04-17 16:42:00,
2013-04-17 12:48:00,81.5,64.8,30.23,NNE,14,2.0,7.0,57,0.00,,,0.00,Wunderground v.1.15,2013-04-17 16:48:00,
2013-04-17 12:54:00,82.0,64.2,30.23,NE,45,2.0,2.0,55,0.00,,,0.00,Wunderground v.1.15,2013-04-17 16:54:00,
2013-04-17 13:00:00,82.0,65.3,30.23,NE,56,2.0,2.0,57,0.00,,,0.00,Wunderground v.1.15,2013-04-17 17:00:00,
2013-04-17 13:06:00,82.0,65.8,30.22,ENE,58,2.0,2.0,58,0.00,,,0.00,Wunderground v.1.15,2013-04-17 17:06:00,
2013-04-17 13:12:00,81.8,64.6,30.22,NE,37,2.0,4.0,56,0.00,,,0.00,Wunderground v.1.15,2013-04-17 17:12:00,
2013-04-17 13:18:00,82.1,63.8,30.22,ESE,110,2.0,4.0,54,0.00,,,0.00,Wunderground v.1.15,2013-04-17 17:18:00,
2013-04-17 13:24:00,82.7,66.9,30.22,East,81,1.0,2.0,59,0.00,,,0.00,Wunderground v.1.15,2013-04-17 17:24:00,
2013-04-17 13:30:00,82.9,65.1,30.22,NE,54,1.0,3.0,55,0.00,,,0.00,Wunderground v.1.15,2013-04-17 17:30:00,
2013-04-17 13:36:00,83.0,62.4,30.21,NE,54,2.0,3.0,50,0.00,,,0.00,Wunderground v.1.15,2013-04-17 17:36:00,
2013-04-17 13:42:00,82.9,62.9,30.21,East,79,2.0,3.0,51,0.00,,,0.00,Wunderground v.1.15,2013-04-17 17:42:00,
2013-04-17 13:48:00,82.6,63.2,30.21,NE,43,2.0,3.0,52,0.00,,,0.00,Wunderground v.1.15,2013-04-17 17:48:00,
2013-04-17 13:54:00,83.0,65.2,30.21,South,176,2.0,2.0,55,0.00,,,0.00,Wunderground v.1.15,2013-04-17 17:54:00,
2013-04-17 14:00:00,83.7,66.8,30.21,North,358,1.0,1.0,57,0.00,,,0.00,Wunderground v.1.15,2013-04-17 18:00:00,
2013-04-17 14:06:00,84.2,64.1,30.20,SSE,151,1.0,1.0,51,0.00,,,0.00,Wunderground v.1.15,2013-04-17 18:06:00,
2013-04-17 14:12:00,84.3,64.8,30.20,NNE,29,1.0,3.0,52,0.00,,,0.00,Wunderground v.1.15,2013-04-17 18:12:00,
2013-04-17 14:18:00,84.5,65.5,30.20,ENE,60,1.0,3.0,53,0.00,,,0.00,Wunderground v.1.15,2013-04-17 18:18:00,
2013-04-17 14:24:00,84.8,64.7,30.20,NNE,23,1.0,2.0,51,0.00,,,0.00,Wunderground v.1.15,2013-04-17 18:24:00,
2013-04-17 14:30:00,84.8,64.1,30.19,SSW,192,2.0,2.0,50,0.00,,,0.00,Wunderground v.1.15,2013-04-17 18:30:00,
2013-04-17 14:36:00,84.1,63.5,30.19,South,189,2.0,2.0,50,0.00,,,0.00,Wunderground v.1.15,2013-04-17 18:36:00,
2013-04-17 14:42:00,83.7,64.8,30.19,SE,137,1.0,1.0,53,0.00,,,0.00,Wunderground v.1.15,2013-04-17 18:42:00,
2013-04-17 14:48:00,84.1,62.3,30.19,South,179,1.0,2.0,48,0.00,,,0.00,Wunderground v.1.15,2013-04-17 18:48:00,
2013-04-17 14:54:00,84.5,67.6,30.18,ESE,103,1.0,1.0,57,0.00,,,0.00,Wunderground v.1.15,2013-04-17 18:54:00,
2013-04-17 15:00:00,84.9,64.2,30.18,SSE,166,2.0,2.0,50,0.00,,,0.00,Wunderground v.1.15,2013-04-17 19:00:00,
2013-04-17 15:06:00,85.2,63.3,30.18,East,79,1.0,2.0,48,0.00,,,0.00,Wunderground v.1.15,2013-04-17 19:06:00,
2013-04-17 15:12:00,85.2,64.5,30.17,NE,44,1.0,3.0,50,0.00,,,0.00,Wunderground v.1.15,2013-04-17 19:12:00,
2013-04-17 15:18:00,84.4,63.2,30.17,ESE,118,1.0,3.0,49,0.00,,,0.00,Wunderground v.1.15,2013-04-17 19:18:00,
2013-04-17 15:24:00,83.8,61.4,30.17,NNE,14,1.0,1.0,47,0.00,,,0.00,Wunderground v.1.15,2013-04-17 19:24:00,
2013-04-17 15:30:00,83.2,61.5,30.17,SW,219,1.0,1.0,48,0.00,,,0.00,Wunderground v.1.15,2013-04-17 19:30:00,
2013-04-17 15:36:00,83.1,62.0,30.17,NE,52,1.0,1.0,49,0.00,,,0.00,Wunderground v.1.15,2013-04-17 19:36:00,
2013-04-17 15:42:00,83.0,61.3,30.17,NE,42,1.0,1.0,48,0.00,,,0.00,Wunderground v.1.15,2013-04-17 19:42:00,
2013-04-17 15:48:00,83.3,60.4,30.17,NE,39,1.0,3.0,46,0.00,,,0.00,Wunderground v.1.15,2013-04-17 19:48:00,
2013-04-17 15:54:00,84.3,61.3,30.17,SE,126,1.0,4.0,46,0.00,,,0.00,Wunderground v.1.15,2013-04-17 19:54:00,
2013-04-17 16:00:00,85.1,60.7,30.16,SSW,194,2.0,2.0,44,0.00,,,0.00,Wunderground v.1.15,2013-04-17 20:00:00,
2013-04-17 16:06:00,85.2,62.1,30.16,SW,228,2.0,5.0,46,0.00,,,0.00,Wunderground v.1.15,2013-04-17 20:06:00,
2013-04-17 16:12:00,84.6,60.3,30.16,SSE,159,1.0,2.0,44,0.00,,,0.00,Wunderground v.1.15,2013-04-17 20:12:00,
2013-04-17 16:18:00,84.5,58.2,30.16,SSE,161,1.0,2.0,41,0.00,,,0.00,Wunderground v.1.15,2013-04-17 20:18:00,
2013-04-17 16:24:00,84.3,60.0,30.16,SW,222,0.0,1.0,44,0.00,,,0.00,Wunderground v.1.15,2013-04-17 20:24:00,
2013-04-17 16:30:00,84.2,59.9,30.15,SE,124,0.0,0.0,44,0.00,,,0.00,Wunderground v.1.15,2013-04-17 20:30:00,
2013-04-17 16:36:00,84.7,64.0,30.15,North,4,0.0,1.0,50,0.00,,,0.00,Wunderground v.1.15,2013-04-17 20:36:00,
2013-04-17 16:42:00,84.9,59.9,30.15,NNE,18,1.0,1.0,43,0.00,,,0.00,Wunderground v.1.15,2013-04-17 20:42:00,
2013-04-17 16:48:00,84.9,60.6,30.15,ENE,61,1.0,2.0,44,0.00,,,0.00,Wunderground v.1.15,2013-04-17 20:48:00,
2013-04-17 16:54:00,84.7,59.7,30.15,NE,45,1.0,1.0,43,0.00,,,0.00,Wunderground v.1.15,2013-04-17 20:54:00,
2013-04-17 17:00:00,84.5,61.4,30.15,NE,45,0.0,0.0,46,0.00,,,0.00,Wunderground v.1.15,2013-04-17 21:00:00,
2013-04-17 17:06:00,84.2,59.9,30.14,SE,145,0.0,0.0,44,0.00,,,0.00,Wunderground v.1.15,2013-04-17 21:06:00,
2013-04-17 17:12:00,83.6,61.8,30.14,NE,50,0.0,0.0,48,0.00,,,0.00,Wunderground v.1.15,2013-04-17 21:12:00,
2013-04-17 17:18:00,83.2,59.6,30.14,NNE,12,0.0,0.0,45,0.00,,,0.00,Wunderground v.1.15,2013-04-17 21:18:00,
2013-04-17 17:24:00,83.0,61.9,30.14,West,274,0.0,2.0,49,0.00,,,0.00,Wunderground v.1.15,2013-04-17 21:24:00,
2013-04-17 17:30:00,82.9,59.4,30.14,South,189,0.0,0.0,45,0.00,,,0.00,Wunderground v.1.15,2013-04-17 21:30:00,
2013-04-17 17:36:00,82.7,59.2,30.14,South,187,0.0,1.0,45,0.00,,,0.00,Wunderground v.1.15,2013-04-17 21:36:00,
2013-04-17 17:42:00,82.5,60.2,30.14,SSW,210,0.0,0.0,47,0.00,,,0.00,Wunderground v.1.15,2013-04-17 21:42:00,
2013-04-17 17:48:00,82.3,60.6,30.14,SSW,210,0.0,0.0,48,0.00,,,0.00,Wunderground v.1.15,2013-04-17 21:48:00,
2013-04-17 17:54:00,82.3,58.8,30.14,SSW,210,0.0,0.0,45,0.00,,,0.00,Wunderground v.1.15,2013-04-17 21:54:00,
2013-04-17 18:00:00,82.0,61.5,30.14,West,275,1.0,1.0,50,0.00,,,0.00,Wunderground v.1.15,2013-04-17 22:00:00,
2013-04-17 18:06:00,81.6,61.7,30.14,NW,311,1.0,3.0,51,0.00,,,0.00,Wunderground v.1.15,2013-04-17 22:06:00,
2013-04-17 18:12:00,81.2,62.4,30.14,WNW,290,1.0,3.0,53,0.00,,,0.00,Wunderground v.1.15,2013-04-17 22:12:00,
2013-04-17 18:18:00,80.9,61.6,30.14,WNW,293,2.0,4.0,52,0.00,,,0.00,Wunderground v.1.15,2013-04-17 22:18:00,
2013-04-17 18:24:00,80.7,62.0,30.14,West,278,2.0,2.0,53,0.00,,,0.00,Wunderground v.1.15,2013-04-17 22:24:00,
2013-04-17 18:30:00,80.5,62.3,30.14,WNW,295,1.0,1.0,54,0.00,,,0.00,Wunderground v.1.15,2013-04-17 22:30:00,
2013-04-17 18:36:00,80.3,62.7,30.14,NNW,335,1.0,3.0,55,0.00,,,0.00,Wunderground v.1.15,2013-04-17 22:36:00,
2013-04-17 18:42:00,80.0,63.9,30.14,NNW,343,1.0,1.0,58,0.00,,,0.00,Wunderground v.1.15,2013-04-17 22:42:00,
2013-04-17 18:48:00,79.6,63.5,30.14,NNW,330,1.0,3.0,58,0.00,,,0.00,Wunderground v.1.15,2013-04-17 22:48:00,
2013-04-17 18:54:00,79.3,63.2,30.14,WNW,298,1.0,5.0,58,0.00,,,0.00,Wunderground v.1.15,2013-04-17 22:54:00,
2013-04-17 19:00:00,79.1,63.1,30.14,NW,310,1.0,1.0,58,0.00,,,0.00,Wunderground v.1.15,2013-04-17 23:00:00,
2013-04-17 19:06:00,78.9,63.4,30.14,WNW,300,0.0,1.0,59,0.00,,,0.00,Wunderground v.1.15,2013-04-17 23:06:00,
2013-04-17 19:12:00,78.7,63.6,30.15,NW,316,0.0,2.0,60,0.00,,,0.00,Wunderground v.1.15,2013-04-17 23:12:00,
2013-04-17 19:18:00,78.4,63.4,30.15,NW,314,0.0,2.0,60,0.00,,,0.00,Wunderground v.1.15,2013-04-17 23:18:00,
2013-04-17 19:24:00,78.3,63.7,30.15,NW,314,0.0,0.0,61,0.00,,,0.00,Wunderground v.1.15,2013-04-17 23:24:00,
2013-04-17 19:30:00,78.0,63.9,30.15,NW,314,0.0,0.0,62,0.00,,,0.00,Wunderground v.1.15,2013-04-17 23:30:00,
2013-04-17 19:36:00,77.7,64.1,30.15,NW,314,0.0,0.0,63,0.00,,,0.00,Wunderground v.1.15,2013-04-17 23:36:00,
2013-04-17 19:42:00,77.3,63.7,30.15,NW,314,0.0,0.0,63,0.00,,,0.00,Wunderground v.1.15,2013-04-17 23:42:00,
2013-04-17 19:48:00,77.1,64.0,30.15,NW,314,0.0,0.0,64,0.00,,,0.00,Wunderground v.1.15,2013-04-17 23:48:00,
2013-04-17 19:54:00,76.7,64.0,30.15,NW,314,0.0,0.0,65,0.00,,,0.00,Wunderground v.1.15,2013-04-17 23:54:00,
2013-04-17 20:00:00,76.5,64.3,30.15,NW,314,0.0,0.0,66,0.00,,,0.00,Wunderground v.1.15,2013-04-18 00:00:00,
2013-04-17 20:06:00,76.2,64.4,30.15,NW,314,0.0,0.0,67,0.00,,,0.00,Wunderground v.1.15,2013-04-18 00:06:00,
2013-04-17 20:12:00,76.0,64.7,30.15,NW,314,0.0,0.0,68,0.00,,,0.00,Wunderground v.1.15,2013-04-18 00:12:00,
2013-04-17 20:18:00,75.7,64.8,30.16,NW,314,0.0,0.0,69,0.00,,,0.00,Wunderground v.1.15,2013-04-18 00:18:00,
2013-04-17 20:24:00,75.5,65.0,30.16,NW,314,0.0,0.0,70,0.00,,,0.00,Wunderground v.1.15,2013-04-18 00:24:00,
2013-04-17 20:30:00,75.2,65.1,30.16,NW,314,0.0,0.0,71,0.00,,,0.00,Wunderground v.1.15,2013-04-18 00:30:00,
2013-04-17 20:36:00,74.9,65.3,30.16,NW,314,0.0,0.0,72,0.00,,,0.00,Wunderground v.1.15,2013-04-18 00:36:00,
2013-04-17 20:42:00,74.5,64.9,30.16,NW,314,0.0,0.0,72,0.00,,,0.00,Wunderground v.1.15,2013-04-18 00:42:00,
2013-04-17 20:48:00,74.3,64.3,30.16,NW,314,0.0,0.0,71,0.00,,,0.00,Wunderground v.1.15,2013-04-18 00:48:00,
2013-04-17 20:54:00,74.4,64.8,30.16,WSW,247,0.0,2.0,72,0.00,,,0.00,Wunderground v.1.15,2013-04-18 00:54:00,
2013-04-17 21:00:00,74.5,64.1,30.16,West,278,0.0,0.0,70,0.00,,,0.00,Wunderground v.1.15,2013-04-18 01:00:00,
2013-04-17 21:06:00,74.7,64.3,30.17,NW,325,1.0,3.0,70,0.00,,,0.00,Wunderground v.1.15,2013-04-18 01:06:00,
2013-04-17 21:12:00,74.8,63.9,30.17,NNW,333,1.0,1.0,69,0.00,,,0.00,Wunderground v.1.15,2013-04-18 01:12:00,
2013-04-17 21:18:00,74.9,64.0,30.17,NNW,331,2.0,3.0,69,0.00,,,0.00,Wunderground v.1.15,2013-04-18 01:18:00,
2013-04-17 21:24:00,74.7,63.9,30.17,NW,311,2.0,2.0,69,0.00,,,0.00,Wunderground v.1.15,2013-04-18 01:24:00,
2013-04-17 21:30:00,74.5,64.1,30.17,NW,308,1.0,1.0,70,0.00,,,0.00,Wunderground v.1.15,2013-04-18 01:30:00,
2013-04-17 21:36:00,74.2,64.6,30.18,NW,308,0.0,1.0,72,0.00,,,0.00,Wunderground v.1.15,2013-04-18 01:36:00,
2013-04-17 21:42:00,73.9,65.1,30.18,NW,308,0.0,0.0,74,0.00,,,0.00,Wunderground v.1.15,2013-04-18 01:42:00,
2013-04-17 21:48:00,73.5,64.3,30.18,NW,308,0.0,0.0,73,0.00,,,0.00,Wunderground v.1.15,2013-04-18 01:48:00,
2013-04-17 21:54:00,73.0,64.2,30.18,NW,304,0.0,1.0,74,0.00,,,0.00,Wunderground v.1.15,2013-04-18 01:54:00,
2013-04-17 22:00:00,72.7,64.3,30.18,NW,304,0.0,0.0,75,0.00,,,0.00,Wunderground v.1.15,2013-04-18 02:00:00,
2013-04-17 22:06:00,72.4,64.0,30.18,NW,304,0.0,0.0,75,0.00,,,0.00,Wunderground v.1.15,2013-04-18 02:06:00,
2013-04-17 22:12:00,72.3,63.9,30.18,NW,304,0.0,0.0,75,0.00,,,0.00,Wunderground v.1.15,2013-04-18 02:12:00,
2013-04-17 22:18:00,72.1,64.5,30.18,NW,304,0.0,0.0,77,0.00,,,0.00,Wunderground v.1.15,2013-04-18 02:18:00,
2013-04-17 22:24:00,71.9,64.3,30.18,NW,313,0.0,0.0,77,0.00,,,0.00,Wunderground v.1.15,2013-04-18 02:24:00,
2013-04-17 22:30:00,71.8,64.6,30.19,NW,316,0.0,0.0,78,0.00,,,0.00,Wunderground v.1.15,2013-04-18 02:30:00,
2013-04-17 22:36:00,71.7,64.5,30.18,NW,316,0.0,0.0,78,0.00,,,0.00,Wunderground v.1.15,2013-04-18 02:36:00,
2013-04-17 22:42:00,71.5,65.0,30.18,NW,316,0.0,0.0,80,0.00,,,0.00,Wunderground v.1.15,2013-04-18 02:42:00,
2013-04-17 22:48:00,71.3,64.8,30.18,NW,316,0.0,0.0,80,0.00,,,0.00,Wunderground v.1.15,2013-04-18 02:48:00,
2013-04-17 22:54:00,71.0,64.5,30.18,NW,316,0.0,0.0,80,0.00,,,0.00,Wunderground v.1.15,2013-04-18 02:54:00,
2013-04-17 23:00:00,70.8,64.3,30.18,NW,316,0.0,0.0,80,0.00,,,0.00,Wunderground v.1.15,2013-04-18 03:00:00,
2013-04-17 23:06:00,70.7,64.2,30.18,NW,316,0.0,0.0,80,0.00,,,0.00,Wunderground v.1.15,2013-04-18 03:06:00,
2013-04-17 23:12:00,70.7,64.2,30.18,WNW,295,0.0,0.0,80,0.00,,,0.00,Wunderground v.1.15,2013-04-18 03:12:00,
2013-04-17 23:18:00,70.7,64.2,30.18,WNW,290,0.0,0.0,80,0.00,,,0.00,Wunderground v.1.15,2013-04-18 03:18:00,
2013-04-17 23:24:00,70.6,64.1,30.17,NW,308,0.0,0.0,80,0.00,,,0.00,Wunderground v.1.15,2013-04-18 03:24:00,
2013-04-17 23:30:00,70.5,64.4,30.17,NW,308,0.0,0.0,81,0.00,,,0.00,Wunderground v.1.15,2013-04-18 03:30:00,
2013-04-17 23:36:00,70.3,64.2,30.17,NW,308,0.0,0.0,81,0.00,,,0.00,Wunderground v.1.15,2013-04-18 03:36:00,
2013-04-17 23:42:00,70.1,64.0,30.18,NW,308,0.0,0.0,81,0.00,,,0.00,Wunderground v.1.15,2013-04-18 03:42:00,
2013-04-17 23:48:00,69.8,64.1,30.18,NW,308,0.0,0.0,82,0.00,,,0.00,Wunderground v.1.15,2013-04-18 03:48:00,
2013-04-17 23:54:00,69.7,64.3,30.18,NW,308,0.0,0.0,83,0.00,,,0.00,Wunderground v.1.15,2013-04-18 03:54:00,